BAW573 LIML-EGLL

Flight info

Callsign BAW573
Flight time 1h 26m
Altitude 34000
Route PEPAG1C PEPAG N851 ABESI/N0447F340 N851 UTAVO DCT ELMUR DCT RIPUS L613 HOC DCT LUL DCT RLP DCT ROTSI DCT KOTUN DCT NINAL DCT ABNUR DCT DIMAL DCT ALESO ALESO1H
Aircraft A320/M-SDE3FGIKRWXY/S

Departure

Time 2026-05-01 13:25
Airport Milano Linate Airport (LIML)

Arrival

Time 2026-05-01 14:52
Airport London Heathrow Airport (EGLL)
Time Latitude Longitude Altitude Speed Heading
2026-05-01 12:32 45.45559 9.28075 360 ft 0 kts 92°
2026-05-01 13:17 45.45559 9.28087 361 ft 2 kts 92°
2026-05-01 13:18 45.45559 9.28131 362 ft 4 kts 93°
2026-05-01 13:18 45.45539 9.28156 365 ft 5 kts 165°
2026-05-01 13:18 45.45500 9.28155 362 ft 6 kts 182°
2026-05-01 13:18 45.45456 9.28137 363 ft 7 kts 234°
2026-05-01 13:19 45.45456 9.28059 367 ft 9 kts 270°
2026-05-01 13:19 45.45436 9.27981 363 ft 8 kts 208°
2026-05-01 13:19 45.45320 9.27930 362 ft 11 kts 206°
2026-05-01 13:20 45.45248 9.27884 362 ft 12 kts 199°
2026-05-01 13:20 45.45158 9.27871 362 ft 14 kts 174°
2026-05-01 13:20 45.45056 9.27882 362 ft 16 kts 176°
2026-05-01 13:21 45.44821 9.27943 362 ft 19 kts 176°
2026-05-01 13:21 45.44685 9.27957 362 ft 21 kts 176°
2026-05-01 13:21 45.44538 9.27970 362 ft 22 kts 176°
2026-05-01 13:21 45.44376 9.27990 364 ft 24 kts 175°
2026-05-01 13:22 45.44202 9.28009 363 ft 26 kts 175°
2026-05-01 13:22 45.44015 9.28030 368 ft 28 kts 175°
2026-05-01 13:22 45.43823 9.28050 363 ft 23 kts 175°
2026-05-01 13:22 45.43709 9.28063 363 ft 14 kts 175°
2026-05-01 13:23 45.43604 9.28075 363 ft 16 kts 175°
2026-05-01 13:23 45.43489 9.28086 363 ft 12 kts 179°
2026-05-01 13:23 45.43445 9.28012 365 ft 12 kts 264°
2026-05-01 13:23 45.43439 9.27889 367 ft 12 kts 269°
2026-05-01 13:24 45.43475 9.27818 363 ft 10 kts 342°
2026-05-01 13:24 45.43504 9.27815 363 ft 0 kts 355°
2026-05-01 13:25 45.44061 9.27756 366 ft 108 kts 355°
2026-05-01 13:25 45.44987 9.27656 475 ft 151 kts 356°
2026-05-01 13:25 45.46050 9.27540 1177 ft 153 kts 353°
2026-05-01 13:25 45.47074 9.27115 1746 ft 161 kts 342°
2026-05-01 13:26 45.48210 9.26574 1990 ft 184 kts 342°
2026-05-01 13:26 45.49498 9.25967 2258 ft 206 kts 342°
2026-05-01 13:26 45.50944 9.25286 2560 ft 231 kts 342°
2026-05-01 13:26 45.52542 9.24495 2991 ft 254 kts 340°
2026-05-01 13:27 45.54231 9.23619 3746 ft 262 kts 340°
2026-05-01 13:27 45.55949 9.22692 4634 ft 265 kts 344°
2026-05-01 13:27 45.58945 9.21659 6080 ft 270 kts 350°
2026-05-01 13:28 45.62711 9.20606 7611 ft 280 kts 349°
2026-05-01 13:28 45.64629 9.20044 8411 ft 283 kts 348°
2026-05-01 13:29 45.68510 9.18832 10003 ft 288 kts 348°
2026-05-01 13:29 45.72534 9.17446 10929 ft 316 kts 347°
2026-05-01 13:30 45.81731 9.14088 12945 ft 351 kts 347°
2026-05-01 13:31 45.86503 9.12325 14258 ft 357 kts 346°
2026-05-01 13:31 45.93745 9.09201 15968 ft 367 kts 345°
2026-05-01 13:32 45.98666 9.07146 17123 ft 372 kts 352°
2026-05-01 13:33 46.06447 9.05841 18868 ft 379 kts 355°
2026-05-01 13:33 46.11727 9.04978 19978 ft 383 kts 355°
2026-05-01 13:34 46.17058 9.04114 21088 ft 388 kts 355°
2026-05-01 13:34 46.22440 9.03362 22117 ft 393 kts 356°
2026-05-01 13:35 46.27916 9.02669 23138 ft 397 kts 356°
2026-05-01 13:35 46.30717 9.02309 23576 ft 400 kts 356°
2026-05-01 13:35 46.36249 9.01572 24418 ft 404 kts 355°
2026-05-01 13:36 46.39054 9.01190 24793 ft 406 kts 356°
2026-05-01 13:36 46.41879 9.00809 25142 ft 409 kts 355°
2026-05-01 13:36 46.47574 9.00044 25837 ft 413 kts 355°
2026-05-01 13:37 46.50443 8.99663 26184 ft 416 kts 355°
2026-05-01 13:37 46.53332 8.99279 26533 ft 417 kts 355°
2026-05-01 13:37 46.56231 8.98890 26862 ft 420 kts 355°
2026-05-01 13:37 46.59148 8.98493 27204 ft 422 kts 355°
2026-05-01 13:38 46.65020 8.97697 27880 ft 426 kts 356°
2026-05-01 13:38 46.67978 8.97297 28236 ft 428 kts 356°
2026-05-01 13:38 46.70950 8.96894 28560 ft 429 kts 356°
2026-05-01 13:39 46.73937 8.96486 28867 ft 431 kts 355°
2026-05-01 13:39 46.76928 8.96077 29259 ft 432 kts 355°
2026-05-01 13:39 46.79917 8.95669 29649 ft 432 kts 355°
2026-05-01 13:39 46.82911 8.95262 30079 ft 432 kts 355°
2026-05-01 13:40 46.85896 8.94856 30547 ft 430 kts 355°
2026-05-01 13:40 46.88878 8.94449 30956 ft 429 kts 355°
2026-05-01 13:40 46.91843 8.94041 31370 ft 428 kts 355°
2026-05-01 13:40 46.94769 8.93640 31750 ft 427 kts 355°
2026-05-01 13:41 46.97764 8.93231 32156 ft 426 kts 355°
2026-05-01 13:41 47.00673 8.92829 32561 ft 425 kts 355°
2026-05-01 13:41 47.03618 8.92421 32960 ft 425 kts 355°
2026-05-01 13:41 47.06555 8.92018 33340 ft 424 kts 355°
2026-05-01 13:42 47.09472 8.91362 33720 ft 425 kts 345°
2026-05-01 13:42 47.12226 8.89816 34093 ft 425 kts 332°
2026-05-01 13:42 47.14696 8.87414 34285 ft 428 kts 319°
2026-05-01 13:42 47.16697 8.84133 34307 ft 436 kts 306°
2026-05-01 13:43 47.18222 8.80247 34303 ft 441 kts 295°
2026-05-01 13:43 47.20444 8.71782 34302 ft 444 kts 292°
2026-05-01 13:44 47.22665 8.63298 34302 ft 444 kts 291°
2026-05-01 13:44 47.24846 8.54783 34299 ft 444 kts 291°
2026-05-01 13:45 47.26983 8.46253 34301 ft 444 kts 291°
2026-05-01 13:45 47.29128 8.37714 34290 ft 444 kts 291°
2026-05-01 13:46 47.31267 8.29154 34271 ft 445 kts 290°
2026-05-01 13:46 47.33404 8.20586 34285 ft 445 kts 290°
2026-05-01 13:47 47.35519 8.12070 34306 ft 445 kts 290°
2026-05-01 13:47 47.37631 8.03499 34296 ft 444 kts 290°
2026-05-01 13:48 47.39737 7.94927 34286 ft 445 kts 290°
2026-05-01 13:48 47.41846 7.86331 34298 ft 445 kts 290°
2026-05-01 13:49 47.43945 7.77730 34290 ft 445 kts 290°
2026-05-01 13:49 47.46028 7.69134 34292 ft 445 kts 290°
2026-05-01 13:50 47.47703 7.60339 34290 ft 444 kts 284°
2026-05-01 13:50 47.49188 7.51474 34279 ft 444 kts 284°
2026-05-01 13:51 47.50669 7.42601 34279 ft 445 kts 283°
2026-05-01 13:51 47.52144 7.33710 34278 ft 445 kts 283°
2026-05-01 13:52 47.53613 7.24812 34277 ft 445 kts 283°
2026-05-01 13:52 47.55075 7.15901 34280 ft 445 kts 283°
2026-05-01 13:53 47.56522 7.06993 34276 ft 445 kts 282°
2026-05-01 13:53 47.58677 6.93669 34271 ft 446 kts 282°
2026-05-01 13:54 47.60119 6.84711 34268 ft 446 kts 282°
2026-05-01 13:54 47.61557 6.75756 34269 ft 447 kts 282°
2026-05-01 13:55 47.62990 6.66801 34276 ft 447 kts 282°
2026-05-01 13:55 47.64417 6.57820 34276 ft 447 kts 282°
2026-05-01 13:56 47.65836 6.48825 34254 ft 447 kts 282°
2026-05-01 13:56 47.67237 6.39830 34253 ft 448 kts 281°
2026-05-01 13:57 47.68394 6.32340 34256 ft 448 kts 281°
2026-05-01 13:57 47.70263 6.21946 34257 ft 449 kts 285°
2026-05-01 13:58 47.72236 6.13129 34258 ft 450 kts 287°
2026-05-01 13:58 47.74217 6.04304 34255 ft 450 kts 286°
2026-05-01 13:59 47.76106 5.95423 34256 ft 450 kts 285°
2026-05-01 13:59 47.77947 5.86526 34257 ft 450 kts 284°
2026-05-01 14:00 47.79787 5.77614 34244 ft 451 kts 284°
2026-05-01 14:00 47.81648 5.68682 34237 ft 452 kts 284°
2026-05-01 14:01 47.83505 5.59749 34241 ft 452 kts 284°
2026-05-01 14:01 47.85353 5.50798 34240 ft 452 kts 284°
2026-05-01 14:02 47.87193 5.41836 34236 ft 453 kts 284°
2026-05-01 14:02 47.89028 5.32843 34222 ft 454 kts 284°
2026-05-01 14:03 47.91551 5.24178 34207 ft 460 kts 300°
2026-05-01 14:03 47.95597 5.16766 34212 ft 463 kts 310°
2026-05-01 14:04 47.99901 5.09676 34229 ft 463 kts 310°
2026-05-01 14:04 48.03501 5.03728 34208 ft 465 kts 310°
2026-05-01 14:05 48.08576 4.95317 34204 ft 467 kts 310°
2026-05-01 14:05 48.12926 4.88087 34195 ft 468 kts 310°
2026-05-01 14:06 48.17284 4.80833 34207 ft 468 kts 310°
2026-05-01 14:06 48.21634 4.73556 34219 ft 469 kts 310°
2026-05-01 14:07 48.25989 4.66255 34224 ft 470 kts 310°
2026-05-01 14:08 48.32541 4.55241 34206 ft 472 kts 310°
2026-05-01 14:08 48.36917 4.47866 34205 ft 473 kts 310°
2026-05-01 14:09 48.41260 4.40519 34222 ft 473 kts 310°
2026-05-01 14:09 48.45620 4.33110 34228 ft 473 kts 310°
2026-05-01 14:10 48.49984 4.25674 34233 ft 474 kts 309°
2026-05-01 14:10 48.54357 4.18215 34215 ft 475 kts 309°
2026-05-01 14:11 48.58737 4.10716 34200 ft 476 kts 310°
2026-05-01 14:11 48.65303 3.99435 34222 ft 476 kts 309°
2026-05-01 14:12 48.69674 3.91897 34231 ft 476 kts 309°
2026-05-01 14:12 48.74087 3.84419 34235 ft 477 kts 312°
2026-05-01 14:13 48.77991 3.78503 34240 ft 477 kts 315°
2026-05-01 14:13 48.82819 3.71598 34242 ft 477 kts 315°
2026-05-01 14:14 48.87614 3.64627 34239 ft 477 kts 314°
2026-05-01 14:14 48.92345 3.57531 34239 ft 477 kts 314°
2026-05-01 14:15 48.97044 3.50413 34249 ft 477 kts 314°
2026-05-01 14:15 49.01757 3.43282 34225 ft 478 kts 314°
2026-05-01 14:16 49.06458 3.36184 34220 ft 479 kts 314°
2026-05-01 14:16 49.11185 3.29027 34220 ft 479 kts 314°
2026-05-01 14:17 49.15912 3.21847 34223 ft 479 kts 314°
2026-05-01 14:17 49.20632 3.14663 34223 ft 479 kts 314°
2026-05-01 14:18 49.25348 3.07455 34233 ft 479 kts 314°
2026-05-01 14:18 49.30065 3.00230 34209 ft 480 kts 314°
2026-05-01 14:19 49.34774 2.93003 34211 ft 479 kts 314°
2026-05-01 14:19 49.39485 2.85751 34213 ft 479 kts 314°
2026-05-01 14:20 49.46528 2.74840 34208 ft 479 kts 314°
2026-05-01 14:21 49.51221 2.67556 34227 ft 479 kts 313°
2026-05-01 14:21 49.55907 2.60262 34221 ft 479 kts 313°
2026-05-01 14:22 49.63270 2.49840 34218 ft 480 kts 322°
2026-05-01 14:22 49.68597 2.43609 34216 ft 481 kts 322°
2026-05-01 14:23 49.73915 2.37350 34205 ft 480 kts 322°
2026-05-01 14:23 49.79222 2.31091 34217 ft 479 kts 322°
2026-05-01 14:24 49.84490 2.24861 34240 ft 479 kts 322°
2026-05-01 14:24 49.89782 2.18589 34222 ft 479 kts 322°
2026-05-01 14:25 49.95082 2.12291 34200 ft 480 kts 322°
2026-05-01 14:25 50.00381 2.05980 34211 ft 479 kts 321°
2026-05-01 14:26 50.08302 1.96504 34221 ft 478 kts 321°
2026-05-01 14:27 50.13571 1.90164 34220 ft 478 kts 321°
2026-05-01 14:27 50.18680 1.83532 34214 ft 477 kts 314°
2026-05-01 14:28 50.25793 1.72704 34235 ft 476 kts 314°
2026-05-01 14:28 50.30530 1.65472 34235 ft 475 kts 314°
2026-05-01 14:29 50.32897 1.61855 34121 ft 476 kts 314°
2026-05-01 14:29 50.35261 1.58232 33840 ft 475 kts 314°
2026-05-01 14:30 50.42417 1.47198 31484 ft 480 kts 314°
2026-05-01 14:30 50.44790 1.43542 30879 ft 477 kts 314°
2026-05-01 14:30 50.47118 1.39953 30289 ft 474 kts 314°
2026-05-01 14:31 50.51739 1.32673 29112 ft 465 kts 311°
2026-05-01 14:31 50.53941 1.28981 28549 ft 460 kts 310°
2026-05-01 14:31 50.56079 1.25290 28001 ft 455 kts 310°
2026-05-01 14:31 50.58200 1.21598 27448 ft 452 kts 310°
2026-05-01 14:32 50.60344 1.18003 26905 ft 448 kts 311°
2026-05-01 14:32 50.62519 1.14510 26372 ft 445 kts 313°
2026-05-01 14:32 50.64711 1.11083 25846 ft 442 kts 313°
2026-05-01 14:32 50.66902 1.07698 25330 ft 440 kts 313°
2026-05-01 14:33 50.69079 1.04327 24826 ft 437 kts 313°
2026-05-01 14:33 50.71231 1.00966 24339 ft 435 kts 313°
2026-05-01 14:33 50.73363 0.97602 23862 ft 432 kts 312°
2026-05-01 14:33 50.75475 0.94242 23343 ft 430 kts 312°
2026-05-01 14:34 50.77568 0.90893 22878 ft 426 kts 312°
2026-05-01 14:34 50.79644 0.87563 22407 ft 423 kts 312°
2026-05-01 14:34 50.81700 0.84263 21944 ft 421 kts 312°
2026-05-01 14:34 50.83755 0.80967 21467 ft 419 kts 312°
2026-05-01 14:35 50.85796 0.77700 20998 ft 416 kts 312°
2026-05-01 14:35 50.87829 0.74444 20503 ft 415 kts 312°
2026-05-01 14:35 50.89852 0.71200 19994 ft 413 kts 311°
2026-05-01 14:35 50.91865 0.67967 19470 ft 411 kts 311°
2026-05-01 14:36 50.93870 0.64741 18947 ft 410 kts 311°
2026-05-01 14:36 50.95872 0.61515 18413 ft 409 kts 311°
2026-05-01 14:36 50.97859 0.58308 17794 ft 408 kts 311°
2026-05-01 14:36 50.99850 0.55086 17120 ft 408 kts 311°
2026-05-01 14:37 51.01802 0.51924 16603 ft 404 kts 311°
2026-05-01 14:37 51.03769 0.48735 15939 ft 403 kts 311°
2026-05-01 14:37 51.05697 0.45611 15236 ft 390 kts 311°
2026-05-01 14:37 51.07576 0.42579 14637 ft 383 kts 312°
2026-05-01 14:38 51.09481 0.39606 14035 ft 384 kts 313°
2026-05-01 14:38 51.11387 0.36706 13398 ft 372 kts 314°
2026-05-01 14:38 51.13239 0.33926 12843 ft 360 kts 314°
2026-05-01 14:38 51.15031 0.31235 12685 ft 348 kts 314°
2026-05-01 14:39 51.16757 0.28630 12559 ft 336 kts 313°
2026-05-01 14:39 51.18423 0.26099 12389 ft 327 kts 313°
2026-05-01 14:39 51.20054 0.23604 12182 ft 321 kts 313°
2026-05-01 14:39 51.21649 0.21157 11939 ft 316 kts 313°
2026-05-01 14:40 51.23217 0.18747 11438 ft 311 kts 312°
2026-05-01 14:40 51.24764 0.16359 10878 ft 308 kts 312°
2026-05-01 14:40 51.26295 0.13994 10332 ft 305 kts 312°
2026-05-01 14:40 51.27812 0.11646 9755 ft 301 kts 312°
2026-05-01 14:41 51.29315 0.09316 9213 ft 303 kts 312°
2026-05-01 14:41 51.30817 0.06989 8964 ft 298 kts 312°
2026-05-01 14:41 51.32179 0.04569 8718 ft 288 kts 299°
2026-05-01 14:41 51.32957 0.01711 8511 ft 277 kts 279°
2026-05-01 14:42 51.33358 -0.01266 8277 ft 272 kts 276°
2026-05-01 14:42 51.33707 -0.04192 8164 ft 263 kts 276°
2026-05-01 14:42 51.34037 -0.06994 8158 ft 251 kts 276°
2026-05-01 14:42 51.34412 -0.09698 8031 ft 250 kts 288°
2026-05-01 14:43 51.35418 -0.11972 7764 ft 256 kts 319°
2026-05-01 14:43 51.37027 -0.13174 7491 ft 260 kts 349°
2026-05-01 14:43 51.38816 -0.12962 7204 ft 259 kts 22°
2026-05-01 14:43 51.40262 -0.11396 7027 ft 248 kts 54°
2026-05-01 14:44 51.40636 -0.10548 6914 ft 244 kts 66°
2026-05-01 14:44 51.41205 -0.05542 6652 ft 211 kts 91°
2026-05-01 14:44 51.41562 -0.03305 6343 ft 211 kts 61°
2026-05-01 14:45 51.42650 -0.01755 5933 ft 212 kts 22°
2026-05-01 14:45 51.45292 -0.02671 5263 ft 201 kts 310°
2026-05-01 14:45 51.46181 -0.04395 4933 ft 200 kts 302°
2026-05-01 14:46 51.47010 -0.06185 4622 ft 199 kts 301°
2026-05-01 14:46 51.47810 -0.10156 4080 ft 184 kts 265°
2026-05-01 14:46 51.47810 -0.12153 3839 ft 174 kts 265°
2026-05-01 14:47 51.47810 -0.14039 3613 ft 165 kts 264°
2026-05-01 14:47 51.47809 -0.15872 3399 ft 164 kts 264°
2026-05-01 14:47 51.47807 -0.17703 3181 ft 164 kts 264°
2026-05-01 14:48 51.47804 -0.21328 2751 ft 164 kts 265°
2026-05-01 14:48 51.47803 -0.23160 2518 ft 164 kts 264°
2026-05-01 14:48 51.47799 -0.26743 2128 ft 159 kts 263°
2026-05-01 14:49 51.47794 -0.30321 1699 ft 158 kts 263°
2026-05-01 14:49 51.47787 -0.33860 1282 ft 158 kts 265°
2026-05-01 14:50 51.47784 -0.36135 1005 ft 146 kts 264°
2026-05-01 14:50 51.47774 -0.40265 515 ft 136 kts 265°
2026-05-01 14:51 51.47775 -0.41777 339 ft 134 kts 264°
2026-05-01 14:51 51.47761 -0.44676 90 ft 111 kts 267°
2026-05-01 14:52 51.47759 -0.46164 87 ft 37 kts 270°
2026-05-01 14:52 51.47756 -0.46489 92 ft 17 kts 264°
2026-05-01 14:52 51.47661 -0.46840 90 ft 17 kts 238°
2026-05-01 14:53 51.47596 -0.46896 88 ft 12 kts 204°
2026-05-01 14:53 51.47580 -0.47005 86 ft 12 kts 277°
2026-05-01 14:53 51.47582 -0.47156 90 ft 15 kts 270°
2026-05-01 14:53 51.47581 -0.47336 90 ft 17 kts 269°
2026-05-01 14:54 51.47581 -0.47544 87 ft 20 kts 270°
2026-05-01 14:54 51.47580 -0.47777 87 ft 22 kts 269°
2026-05-01 14:54 51.47579 -0.48035 91 ft 24 kts 269°
2026-05-01 14:54 51.47578 -0.48306 89 ft 22 kts 269°
2026-05-01 14:55 51.47565 -0.48471 91 ft 9 kts 221°
2026-05-01 14:55 51.47498 -0.48475 86 ft 11 kts 179°
2026-05-01 14:55 51.47411 -0.48475 86 ft 14 kts 180°
2026-05-01 14:55 51.47306 -0.48473 86 ft 16 kts 180°
2026-05-01 14:56 51.47238 -0.48477 86 ft 1 kts 202°
2026-05-01 14:56 51.47232 -0.48501 89 ft 3 kts 256°
2026-05-01 14:56 51.47232 -0.48554 88 ft 6 kts 273°
2026-05-01 14:56 51.47233 -0.48577 86 ft 2 kts 270°
2026-05-01 14:57 51.47233 -0.48585 89 ft 0 kts 270°